FENGYUN 1C DEB, 30313

Orbit data source: Space-Track

FENGYUN 1C DEB, 30313 is space debris in SSO originally from a launch on Mon, 10 May 1999 UTC launched from the Taiyaun Space Center, China (TSC). Fengyun 1C debris stems from the Chinese weather satellite Fengyun-1C, which was intentionally destroyed by a Chinese anti-satellite missile in 2007. This event dramatically increased the amount of space debris, with thousands of trackable fragments posing hazards to satellites and human spaceflight. The Fengyun 1C debris cloud has become a focal point in discussions about space sustainability and the need for international regulations to prevent the creation of new debris.

Loading next visibility...
Identifier
30313, 1999-025AAA
Orbit
SSO
Country
Flag of CNCN / PRC
Related business
Manufacturer
Unknown
Mission
Spacecraft
Bus & Motor
Unknown
Mass
Unknown
Launch date (UTC)
1999-05-10 (27 years ago)
Launch vehicle
Unknown
Launch site
Taiyaun Space Center, China (TSC)
Object type
Payload
Rocket body
Debris
Shape & HBR
Unknown shape, 0.1 m
Radar Cross Section
Medium (>0.1 m² and <1 m²)

Expand to show TLE details & history
Last TLE update: 8 hours ago

TLE from 8 hours ago
0 FENGYUN 1C DEB
1 30313U 99025AAA 26264.54061350  .00002300  00000-0  93730-3 0  9999
2 30313  98.8695 359.4770 0056369 234.9508 135.9326 14.27582426 11183
Epoch: 2026-09-21T12:58Z
TLE epoch observation values (Epoch: 2026-09-21T12:58:29.006Z)
Latitude
11.14553°
Longitude
162.68467°
Altitude
831.173 km
Speed
7.423 km/s
True Right ascension
23h 50m 53s
True Declination
11° 04' 52"
Sunlit
Object was in full shadow at epoch
Visualization orbit readout
Latitude
Unknown
Longitude
Unknown
Altitude
Unknown
Speed
Unknown
Apparent Right ascension
Unknown
Apparent Declination
Unknown
Sunlit
N/A
Visualization observer readout
Local Sidereal Time
13:46:10
Azimuth
Unknown
Elevation
Unknown
Doppler factor
Unknown
Orbital elements
Apogee altitude
837.425 km
Perigee altitude
756.534 km
Semi-major axis
7,175.116 km
Eccentricity
0.00564
Inclination
98.8695°
RAAN
359.477°
Arg. of periapsis
234.9508°
True anomaly
136.37959°
Mean anomaly
135.9326°
Eccentric anomaly
136.15632°
Mean motion
3.57108 °/min
Orbital period
100.81 mins
BSTAR
0.0009373
Loading maneuver chart data...
Computing Atmospheric mass density...

Documentation

Showing up to 5 results
|